DYE436 LEBL-LIMC

Flight info

Callsign DYE436
Flight time 1h 35m
Altitude 30000
Route AGENA DCT BODEQ DCT LUMAS DCT UNANA DCT STP DCT RAPED DCT PIGOS DCT EKSID DCT NOSTA DCT EGHIN DCT ANAKI/N0387F180 P860 DEVOX
Aircraft A320/M-SDE3FGHIRWY/LB1

Departure

Time 2026-05-05 19:30
Airport Josep Tarradellas Barcelona-El Prat Airport (LEBL)

Arrival

Time 2026-05-05 21:05
Airport Milan Malpensa International Airport (LIMC)
Time Latitude Longitude Altitude Speed Heading
2026-05-05 19:05 41.28995 2.07952 19 ft 0 kts 335°
2026-05-05 19:20 41.28981 2.07960 21 ft 2 kts 335°
2026-05-05 19:20 41.28965 2.07970 20 ft 2 kts 335°
2026-05-05 19:21 41.28950 2.07980 21 ft 2 kts 335°
2026-05-05 19:21 41.28933 2.07982 21 ft 2 kts 45°
2026-05-05 19:21 41.28930 2.07978 20 ft 0 kts 61°
2026-05-05 19:23 41.28940 2.08019 20 ft 13 kts 73°
2026-05-05 19:23 41.28944 2.08118 21 ft 10 kts 131°
2026-05-05 19:23 41.28850 2.08181 18 ft 18 kts 156°
2026-05-05 19:23 41.28737 2.08231 16 ft 12 kts 175°
2026-05-05 19:24 41.28714 2.08290 17 ft 12 kts 75°
2026-05-05 19:24 41.28752 2.08408 17 ft 13 kts 65°
2026-05-05 19:24 41.28785 2.08505 18 ft 14 kts 66°
2026-05-05 19:24 41.28842 2.08671 17 ft 21 kts 65°
2026-05-05 19:25 41.28904 2.08852 16 ft 22 kts 65°
2026-05-05 19:25 41.28970 2.09047 17 ft 24 kts 66°
2026-05-05 19:25 41.29040 2.09251 18 ft 24 kts 65°
2026-05-05 19:25 41.29111 2.09458 18 ft 25 kts 65°
2026-05-05 19:26 41.29177 2.09645 17 ft 21 kts 65°
2026-05-05 19:26 41.29218 2.09763 17 ft 21 kts 65°
2026-05-05 19:26 41.29255 2.09867 18 ft 9 kts 65°
2026-05-05 19:26 41.29286 2.09939 17 ft 12 kts 56°
2026-05-05 19:27 41.29324 2.10055 17 ft 13 kts 83°
2026-05-05 19:27 41.29301 2.10172 14 ft 10 kts 111°
2026-05-05 19:27 41.29299 2.10179 14 ft 0 kts 111°
2026-05-05 19:28 41.29279 2.10254 13 ft 17 kts 111°
2026-05-05 19:28 41.29198 2.10262 16 ft 12 kts 240°
2026-05-05 19:28 41.29194 2.10248 16 ft 0 kts 244°
2026-05-05 19:29 41.29187 2.10229 16 ft 20 kts 244°
2026-05-05 19:29 41.29016 2.09736 22 ft 93 kts 245°
2026-05-05 19:30 41.28663 2.08703 22 ft 149 kts 246°
2026-05-05 19:30 41.28205 2.07322 347 ft 167 kts 245°
2026-05-05 19:30 41.27609 2.06001 1012 ft 169 kts 221°
2026-05-05 19:30 41.26457 2.05529 1543 ft 188 kts 186°
2026-05-05 19:31 41.25043 2.05520 1852 ft 212 kts 182°
2026-05-05 19:31 41.23536 2.05558 2370 ft 223 kts 182°
2026-05-05 19:31 41.21974 2.05601 3098 ft 225 kts 182°
2026-05-05 19:31 41.20375 2.05884 3603 ft 245 kts 161°
2026-05-05 19:32 41.18916 2.07251 4015 ft 272 kts 130°
2026-05-05 19:32 41.17840 2.09374 4799 ft 280 kts 122°
2026-05-05 19:32 41.16844 2.11614 5666 ft 284 kts 121°
2026-05-05 19:32 41.15840 2.13895 6518 ft 288 kts 121°
2026-05-05 19:33 41.14826 2.16213 7337 ft 292 kts 119°
2026-05-05 19:33 41.14175 2.18787 8139 ft 299 kts 96°
2026-05-05 19:33 41.14341 2.21518 8920 ft 303 kts 71°
2026-05-05 19:33 41.15137 2.24132 9730 ft 306 kts 65°
2026-05-05 19:34 41.15998 2.26774 10238 ft 321 kts 65°
2026-05-05 19:34 41.16918 2.29592 10463 ft 345 kts 66°
2026-05-05 19:34 41.17900 2.32610 10655 ft 368 kts 66°
2026-05-05 19:35 41.19975 2.39052 11753 ft 385 kts 67°
2026-05-05 19:35 41.21019 2.42309 12433 ft 390 kts 67°
2026-05-05 19:35 41.22100 2.45685 13126 ft 394 kts 68°
2026-05-05 19:35 41.23176 2.49060 13787 ft 399 kts 68°
2026-05-05 19:36 41.24261 2.52470 14373 ft 403 kts 68°
2026-05-05 19:36 41.25341 2.55863 14946 ft 407 kts 68°
2026-05-05 19:36 41.26452 2.59350 15535 ft 411 kts 68°
2026-05-05 19:36 41.27577 2.62879 16111 ft 416 kts 68°
2026-05-05 19:37 41.28706 2.66428 16685 ft 420 kts 68°
2026-05-05 19:37 41.29870 2.70086 17140 ft 427 kts 69°
2026-05-05 19:37 41.31017 2.73708 17622 ft 433 kts 69°
2026-05-05 19:37 41.32192 2.77424 18217 ft 437 kts 69°
2026-05-05 19:38 41.33371 2.81151 18773 ft 439 kts 69°
2026-05-05 19:38 41.34565 2.84930 19241 ft 444 kts 69°
2026-05-05 19:38 41.35765 2.88739 19694 ft 449 kts 69°
2026-05-05 19:38 41.36979 2.92600 20136 ft 455 kts 70°
2026-05-05 19:39 41.38205 2.96506 20563 ft 460 kts 70°
2026-05-05 19:39 41.39446 3.00466 20991 ft 465 kts 70°
2026-05-05 19:39 41.40693 3.04455 21403 ft 470 kts 70°
2026-05-05 19:39 41.41957 3.08505 21734 ft 476 kts 70°
2026-05-05 19:40 41.43237 3.12602 22113 ft 481 kts 70°
2026-05-05 19:40 41.44534 3.16744 22506 ft 486 kts 70°
2026-05-05 19:40 41.45838 3.20910 22893 ft 490 kts 70°
2026-05-05 19:40 41.47157 3.25134 23267 ft 494 kts 70°
2026-05-05 19:41 41.48476 3.29384 23598 ft 499 kts 70°
2026-05-05 19:41 41.49798 3.33668 23930 ft 502 kts 70°
2026-05-05 19:41 41.51133 3.38004 24134 ft 508 kts 70°
2026-05-05 19:41 41.52486 3.42400 24309 ft 515 kts 71°
2026-05-05 19:42 41.53848 3.46853 24417 ft 521 kts 72°
2026-05-05 19:42 41.54907 3.51468 24611 ft 520 kts 81°
2026-05-05 19:42 41.55684 3.56186 24845 ft 522 kts 82°
2026-05-05 19:42 41.56459 3.60932 25006 ft 526 kts 82°
2026-05-05 19:43 41.57246 3.65726 25138 ft 530 kts 82°
2026-05-05 19:43 41.58038 3.70550 25317 ft 533 kts 82°
2026-05-05 19:43 41.58833 3.75397 25509 ft 535 kts 82°
2026-05-05 19:43 41.59626 3.80254 25689 ft 536 kts 82°
2026-05-05 19:44 41.60420 3.85130 25837 ft 537 kts 81°
2026-05-05 19:44 41.61212 3.90016 26003 ft 539 kts 81°
2026-05-05 19:44 41.62001 3.94901 26155 ft 540 kts 81°
2026-05-05 19:44 41.62792 3.99821 26314 ft 541 kts 81°
2026-05-05 19:45 41.63570 4.04683 26443 ft 542 kts 82°
2026-05-05 19:45 41.64357 4.09627 26575 ft 543 kts 82°
2026-05-05 19:45 41.65145 4.14569 26698 ft 544 kts 81°
2026-05-05 19:45 41.65934 4.19504 26785 ft 544 kts 81°
2026-05-05 19:46 41.66722 4.24463 26946 ft 543 kts 82°
2026-05-05 19:46 41.67503 4.29398 27113 ft 543 kts 82°
2026-05-05 19:46 41.68285 4.34343 27274 ft 542 kts 82°
2026-05-05 19:46 41.69064 4.39275 27436 ft 542 kts 82°
2026-05-05 19:47 41.69840 4.44211 27658 ft 541 kts 82°
2026-05-05 19:47 41.70611 4.49143 27848 ft 540 kts 82°
2026-05-05 19:47 41.71373 4.54059 28026 ft 539 kts 82°
2026-05-05 19:47 41.72217 4.58953 28169 ft 542 kts 76°
2026-05-05 19:48 41.73533 4.63694 28306 ft 546 kts 67°
2026-05-05 19:48 41.75355 4.68160 28472 ft 548 kts 57°
2026-05-05 19:48 41.77645 4.72224 28639 ft 547 kts 47°
2026-05-05 19:48 41.80315 4.75862 28802 ft 547 kts 43°
2026-05-05 19:49 41.83033 4.79422 28975 ft 547 kts 43°
2026-05-05 19:49 41.84831 4.81787 29090 ft 547 kts 43°
2026-05-05 19:49 41.88450 4.86579 29351 ft 547 kts 43°
2026-05-05 19:49 41.91149 4.90173 29578 ft 545 kts 43°
2026-05-05 19:50 41.93836 4.93757 29802 ft 544 kts 43°
2026-05-05 19:50 41.99220 5.00939 29902 ft 547 kts 44°
2026-05-05 19:51 42.04587 5.08095 29896 ft 547 kts 44°
2026-05-05 19:51 42.09994 5.15318 29897 ft 547 kts 44°
2026-05-05 19:52 42.15378 5.22529 29898 ft 546 kts 44°
2026-05-05 19:52 42.20760 5.29755 29895 ft 546 kts 44°
2026-05-05 19:53 42.26132 5.36988 29884 ft 546 kts 44°
2026-05-05 19:53 42.31507 5.44252 29907 ft 547 kts 44°
2026-05-05 19:54 42.36885 5.51523 29897 ft 547 kts 44°
2026-05-05 19:54 42.42257 5.58812 29911 ft 547 kts 44°
2026-05-05 19:55 42.47619 5.66119 29952 ft 547 kts 44°
2026-05-05 19:55 42.52979 5.73430 29878 ft 547 kts 44°
2026-05-05 19:56 42.58338 5.80752 29905 ft 547 kts 44°
2026-05-05 19:56 42.63690 5.88090 29920 ft 546 kts 44°
2026-05-05 19:57 42.69032 5.95435 29924 ft 546 kts 44°
2026-05-05 19:57 42.74331 6.02745 29927 ft 546 kts 44°
2026-05-05 19:58 42.79657 6.10115 29897 ft 546 kts 45°
2026-05-05 19:58 42.84992 6.17475 29912 ft 546 kts 42°
2026-05-05 19:59 42.90764 6.24188 29963 ft 545 kts 38°
2026-05-05 19:59 42.96571 6.30846 29960 ft 545 kts 39°
2026-05-05 20:00 43.02365 6.37517 29956 ft 545 kts 39°
2026-05-05 20:00 43.08161 6.44203 29951 ft 545 kts 39°
2026-05-05 20:01 43.13961 6.50907 29922 ft 545 kts 39°
2026-05-05 20:01 43.19745 6.57623 29927 ft 546 kts 40°
2026-05-05 20:02 43.24742 6.65434 29959 ft 545 kts 55°
2026-05-05 20:02 43.29195 6.73876 29928 ft 546 kts 55°
2026-05-05 20:03 43.33653 6.82328 29946 ft 546 kts 55°
2026-05-05 20:03 43.38108 6.90796 29921 ft 547 kts 55°
2026-05-05 20:04 43.42559 6.99273 29974 ft 547 kts 55°
2026-05-05 20:04 43.47009 7.07780 29942 ft 548 kts 55°
2026-05-05 20:05 43.51420 7.16252 29950 ft 548 kts 56°
2026-05-05 20:05 43.55856 7.24795 29950 ft 548 kts 56°
2026-05-05 20:06 43.60286 7.33355 29976 ft 548 kts 56°
2026-05-05 20:06 43.64721 7.41929 29969 ft 548 kts 56°
2026-05-05 20:07 43.69157 7.50516 29972 ft 549 kts 56°
2026-05-05 20:07 43.73578 7.59115 29931 ft 548 kts 56°
2026-05-05 20:08 43.77648 7.68018 29946 ft 547 kts 62°
2026-05-05 20:08 43.81421 7.77148 29969 ft 546 kts 63°
2026-05-05 20:09 43.85153 7.86327 29975 ft 546 kts 63°
2026-05-05 20:09 43.88262 7.93944 29972 ft 546 kts 62°
2026-05-05 20:10 43.92631 8.04585 29949 ft 546 kts 62°
2026-05-05 20:10 43.95772 8.12249 29974 ft 545 kts 62°
2026-05-05 20:11 43.99488 8.21354 29976 ft 545 kts 62°
2026-05-05 20:11 44.03210 8.30530 29978 ft 545 kts 62°
2026-05-05 20:11 44.05050 8.35084 29828 ft 536 kts 62°
2026-05-05 20:12 44.06865 8.39579 29539 ft 531 kts 62°
2026-05-05 20:12 44.08668 8.44048 29266 ft 529 kts 62°
2026-05-05 20:12 44.10464 8.48501 28983 ft 528 kts 62°
2026-05-05 20:12 44.12262 8.52965 28737 ft 527 kts 63°
2026-05-05 20:13 44.14050 8.57409 28468 ft 526 kts 63°
2026-05-05 20:13 44.15998 8.61728 28042 ft 526 kts 54°
2026-05-05 20:13 44.18425 8.65557 26683 ft 531 kts 42°
2026-05-05 20:13 44.21384 8.68649 25497 ft 530 kts 29°
2026-05-05 20:14 44.24644 8.70883 24825 ft 517 kts 19°
2026-05-05 20:14 44.28044 8.72368 24005 ft 507 kts
2026-05-05 20:14 44.31480 8.73042 23217 ft 490 kts 359°
2026-05-05 20:14 44.34810 8.73214 22503 ft 467 kts 358°
2026-05-05 20:15 44.38000 8.73366 21846 ft 452 kts 358°
2026-05-05 20:15 44.41118 8.73504 21213 ft 447 kts 358°
2026-05-05 20:15 44.44174 8.73628 20766 ft 441 kts 358°
2026-05-05 20:15 44.47228 8.73751 20623 ft 427 kts 358°
2026-05-05 20:16 44.50158 8.73872 20495 ft 415 kts 357°
2026-05-05 20:16 44.52996 8.73994 20369 ft 402 kts 357°
2026-05-05 20:16 44.55759 8.74114 20143 ft 393 kts 357°
2026-05-05 20:16 44.58437 8.74228 19772 ft 388 kts 357°
2026-05-05 20:17 44.61165 8.74340 19389 ft 385 kts 357°
2026-05-05 20:17 44.63800 8.74447 19009 ft 382 kts 357°
2026-05-05 20:17 44.66484 8.74556 18293 ft 391 kts 358°
2026-05-05 20:17 44.69182 8.74668 18001 ft 383 kts 358°
2026-05-05 20:18 44.71819 8.74787 17842 ft 377 kts 358°
2026-05-05 20:18 44.74437 8.74858 17429 ft 372 kts 352°
2026-05-05 20:18 44.76906 8.74095 17049 ft 357 kts 332°
2026-05-05 20:18 44.78981 8.72343 16662 ft 343 kts 313°
2026-05-05 20:19 44.80525 8.69872 16270 ft 330 kts 296°
2026-05-05 20:19 44.81456 8.66987 15894 ft 320 kts 281°
2026-05-05 20:19 44.81766 8.63940 15522 ft 311 kts 266°
2026-05-05 20:19 44.81480 8.60957 15160 ft 305 kts 251°
2026-05-05 20:20 44.80648 8.58226 14779 ft 302 kts 237°
2026-05-05 20:20 44.79350 8.55931 14423 ft 301 kts 224°
2026-05-05 20:20 44.77663 8.54194 14065 ft 302 kts 210°
2026-05-05 20:20 44.75783 8.52866 13698 ft 302 kts 206°
2026-05-05 20:21 44.73868 8.51695 13301 ft 300 kts 204°
2026-05-05 20:21 44.71936 8.50608 12904 ft 298 kts 203°
2026-05-05 20:21 44.70006 8.49559 12514 ft 296 kts 203°
2026-05-05 20:21 44.68097 8.48526 12121 ft 294 kts 203°
2026-05-05 20:22 44.66213 8.47502 11954 ft 284 kts 203°
2026-05-05 20:22 44.64327 8.46736 11972 ft 283 kts 191°
2026-05-05 20:22 44.62358 8.46580 11975 ft 286 kts 179°
2026-05-05 20:22 44.60392 8.47071 11975 ft 290 kts 166°
2026-05-05 20:23 44.58533 8.48224 11969 ft 295 kts 152°
2026-05-05 20:23 44.56906 8.50012 11974 ft 300 kts 138°
2026-05-05 20:23 44.55637 8.52315 11976 ft 306 kts 123°
2026-05-05 20:23 44.54796 8.55061 11970 ft 311 kts 108°
2026-05-05 20:24 44.54480 8.58091 11974 ft 316 kts 92°
2026-05-05 20:24 44.54736 8.61151 11975 ft 319 kts 77°
2026-05-05 20:24 44.55556 8.64030 11969 ft 320 kts 60°
2026-05-05 20:24 44.56895 8.66524 11967 ft 321 kts 44°
2026-05-05 20:25 44.58649 8.68433 11976 ft 320 kts 28°
2026-05-05 20:25 44.60675 8.69673 11973 ft 318 kts 18°
2026-05-05 20:25 44.62747 8.70789 11979 ft 319 kts 19°
2026-05-05 20:25 44.64809 8.71944 11958 ft 319 kts 20°
2026-05-05 20:26 44.66870 8.73116 11975 ft 320 kts 20°
2026-05-05 20:26 44.68929 8.74285 11978 ft 319 kts 20°
2026-05-05 20:26 44.71034 8.75192 11975 ft 315 kts
2026-05-05 20:26 44.73189 8.75030 11971 ft 307 kts 341°
2026-05-05 20:27 44.75097 8.73814 11983 ft 300 kts 320°
2026-05-05 20:27 44.76546 8.71771 11978 ft 293 kts 300°
2026-05-05 20:27 44.77385 8.69212 11976 ft 287 kts 281°
2026-05-05 20:27 44.77564 8.66453 11977 ft 282 kts 262°
2026-05-05 20:28 44.77095 8.63803 11970 ft 279 kts 244°
2026-05-05 20:28 44.76042 8.61529 11981 ft 279 kts 226°
2026-05-05 20:28 44.74518 8.59856 11978 ft 280 kts 210°
2026-05-05 20:28 44.72765 8.58670 11982 ft 281 kts 205°
2026-05-05 20:29 44.70955 8.57626 11975 ft 281 kts 203°
2026-05-05 20:29 44.69127 8.56641 11979 ft 282 kts 202°
2026-05-05 20:29 44.67297 8.55668 11972 ft 281 kts 202°
2026-05-05 20:29 44.65468 8.54702 11976 ft 281 kts 200°
2026-05-05 20:30 44.63537 8.54269 11978 ft 284 kts 182°
2026-05-05 20:30 44.61600 8.54743 11972 ft 290 kts 163°
2026-05-05 20:30 44.59811 8.56165 11976 ft 298 kts 143°
2026-05-05 20:30 44.58475 8.58375 11975 ft 305 kts 123°
2026-05-05 20:31 44.57759 8.61198 11972 ft 313 kts 101°
2026-05-05 20:31 44.57828 8.64258 11980 ft 318 kts 78°
2026-05-05 20:31 44.58707 8.67097 11975 ft 321 kts 55°
2026-05-05 20:31 44.60276 8.69292 11976 ft 320 kts 32°
2026-05-05 20:32 44.62292 8.70548 11971 ft 316 kts
2026-05-05 20:32 44.64457 8.70717 11980 ft 310 kts 348°
2026-05-05 20:32 44.66560 8.70115 11976 ft 309 kts 344°
2026-05-05 20:32 44.68655 8.69466 11981 ft 308 kts 344°
2026-05-05 20:33 44.70754 8.68817 11971 ft 308 kts 344°
2026-05-05 20:33 44.72851 8.68168 11970 ft 308 kts 344°
2026-05-05 20:33 44.74941 8.67518 11970 ft 308 kts 344°
2026-05-05 20:33 44.77037 8.66865 11980 ft 308 kts 344°
2026-05-05 20:34 44.79133 8.66212 11973 ft 309 kts 344°
2026-05-05 20:34 44.81235 8.65559 11976 ft 309 kts 344°
2026-05-05 20:34 44.83336 8.64911 11977 ft 309 kts 344°
2026-05-05 20:34 44.85434 8.64262 11981 ft 309 kts 344°
2026-05-05 20:35 44.87529 8.63612 11976 ft 308 kts 345°
2026-05-05 20:35 44.89622 8.62959 11979 ft 308 kts 344°
2026-05-05 20:35 44.91721 8.62301 11910 ft 309 kts 344°
2026-05-05 20:35 44.93812 8.61645 11650 ft 307 kts 345°
2026-05-05 20:36 44.95895 8.60994 11396 ft 305 kts 345°
2026-05-05 20:36 44.97965 8.60349 11153 ft 304 kts 345°
2026-05-05 20:36 45.00026 8.59706 10899 ft 303 kts 345°
2026-05-05 20:36 45.02087 8.59062 10652 ft 302 kts 345°
2026-05-05 20:37 45.04104 8.58434 10405 ft 301 kts 345°
2026-05-05 20:37 45.06145 8.57795 10181 ft 300 kts 346°
2026-05-05 20:37 45.08207 8.57149 9991 ft 299 kts 345°
2026-05-05 20:37 45.10212 8.56518 9975 ft 299 kts 345°
2026-05-05 20:38 45.12246 8.55878 9978 ft 299 kts 345°
2026-05-05 20:38 45.14274 8.55241 9977 ft 298 kts 346°
2026-05-05 20:38 45.16250 8.54622 9992 ft 283 kts 345°
2026-05-05 20:38 45.18148 8.54026 9994 ft 278 kts 345°
2026-05-05 20:39 45.20034 8.53431 9995 ft 277 kts 345°
2026-05-05 20:39 45.21902 8.52778 9996 ft 275 kts 337°
2026-05-05 20:39 45.23523 8.51421 10000 ft 270 kts 314°
2026-05-05 20:39 45.24604 8.49299 10004 ft 264 kts 290°
2026-05-05 20:40 45.24960 8.46790 9999 ft 259 kts 266°
2026-05-05 20:40 45.24570 8.44330 9996 ft 256 kts 243°
2026-05-05 20:40 45.23537 8.42297 9990 ft 255 kts 221°
2026-05-05 20:40 45.22031 8.41007 9981 ft 255 kts 199°
2026-05-05 20:41 45.20275 8.40665 9989 ft 258 kts 177°
2026-05-05 20:41 45.18491 8.40990 9987 ft 259 kts 172°
2026-05-05 20:41 45.16698 8.41437 9662 ft 266 kts 171°
2026-05-05 20:41 45.14879 8.41933 9346 ft 262 kts 171°
2026-05-05 20:42 45.13117 8.42419 9099 ft 256 kts 171°
2026-05-05 20:42 45.11395 8.43015 8965 ft 256 kts 158°
2026-05-05 20:42 45.09915 8.44423 8978 ft 260 kts 135°
2026-05-05 20:42 45.08930 8.46579 8970 ft 265 kts 112°
2026-05-05 20:43 45.08636 8.49154 8976 ft 269 kts 88°
2026-05-05 20:43 45.09125 8.51708 8974 ft 272 kts 62°
2026-05-05 20:43 45.10331 8.53760 8978 ft 274 kts 36°
2026-05-05 20:43 45.12049 8.54899 8982 ft 274 kts 10°
2026-05-05 20:44 45.13933 8.54936 8982 ft 272 kts 350°
2026-05-05 20:44 45.15803 8.54521 8996 ft 272 kts 348°
2026-05-05 20:44 45.17668 8.54038 8989 ft 272 kts 347°
2026-05-05 20:44 45.19510 8.53542 8992 ft 273 kts 347°
2026-05-05 20:45 45.23081 8.51988 8999 ft 267 kts 320°
2026-05-05 20:45 45.24304 8.50026 9000 ft 262 kts 295°
2026-05-05 20:45 45.24828 8.47594 9003 ft 257 kts 271°
2026-05-05 20:46 45.24619 8.45135 9002 ft 254 kts 248°
2026-05-05 20:46 45.23718 8.42979 8993 ft 252 kts 225°
2026-05-05 20:46 45.22301 8.41551 8988 ft 252 kts 202°
2026-05-05 20:46 45.20588 8.41032 8929 ft 255 kts 181°
2026-05-05 20:47 45.18838 8.41314 8534 ft 257 kts 172°
2026-05-05 20:47 45.17083 8.41755 8157 ft 256 kts 171°
2026-05-05 20:47 45.15349 8.42224 7980 ft 250 kts 170°
2026-05-05 20:47 45.13638 8.42692 7983 ft 251 kts 170°
2026-05-05 20:48 45.11924 8.43202 7980 ft 252 kts 163°
2026-05-05 20:48 45.10391 8.44399 7982 ft 255 kts 140°
2026-05-05 20:48 45.09315 8.46388 7974 ft 259 kts 116°
2026-05-05 20:48 45.08900 8.48874 7974 ft 263 kts 91°
2026-05-05 20:49 45.09257 8.51409 7983 ft 267 kts 66°
2026-05-05 20:49 45.10349 8.53523 7982 ft 269 kts 40°
2026-05-05 20:49 45.11974 8.54786 7977 ft 269 kts 14°
2026-05-05 20:49 45.13826 8.54950 7982 ft 267 kts 349°
2026-05-05 20:50 45.15661 8.54470 7887 ft 268 kts 347°
2026-05-05 20:50 45.16872 8.54145 7804 ft 267 kts 348°
2026-05-05 20:50 45.19311 8.53487 7638 ft 266 kts 348°
2026-05-05 20:50 45.21133 8.52993 7518 ft 266 kts 348°
2026-05-05 20:51 45.22972 8.52496 7392 ft 265 kts 348°
2026-05-05 20:51 45.24759 8.52012 7273 ft 264 kts 348°
2026-05-05 20:51 45.26564 8.51522 7143 ft 264 kts 348°
2026-05-05 20:51 45.28368 8.51033 7032 ft 263 kts 348°
2026-05-05 20:52 45.30178 8.50785 6902 ft 262 kts
2026-05-05 20:52 45.31358 8.51233 6819 ft 261 kts 26°
2026-05-05 20:52 45.33111 8.53479 6657 ft 258 kts 63°
2026-05-05 20:52 45.33666 8.55880 6541 ft 257 kts 81°
2026-05-05 20:53 45.33899 8.57565 6454 ft 258 kts 81°
2026-05-05 20:53 45.34241 8.60072 6326 ft 258 kts 81°
2026-05-05 20:53 45.34502 8.62550 6195 ft 255 kts 94°
2026-05-05 20:53 45.34019 8.64898 6077 ft 248 kts 126°
2026-05-05 20:54 45.32772 8.66506 6005 ft 242 kts 156°
2026-05-05 20:54 45.31202 8.67124 6005 ft 226 kts 170°
2026-05-05 20:54 45.29707 8.67535 6005 ft 213 kts 170°
2026-05-05 20:54 45.28256 8.67930 6006 ft 211 kts 170°
2026-05-05 20:55 45.26817 8.68324 6007 ft 211 kts 170°
2026-05-05 20:55 45.25366 8.68719 6009 ft 211 kts 170°
2026-05-05 20:55 45.23925 8.69111 6007 ft 211 kts 170°
2026-05-05 20:55 45.22479 8.69506 6004 ft 212 kts 170°
2026-05-05 20:56 45.21033 8.69903 6005 ft 212 kts 170°
2026-05-05 20:56 45.19594 8.70326 6004 ft 212 kts 163°
2026-05-05 20:56 45.18377 8.71476 5984 ft 215 kts 128°
2026-05-05 20:56 45.17844 8.73443 5984 ft 220 kts 93°
2026-05-05 20:57 45.18199 8.75539 5983 ft 224 kts 58°
2026-05-05 20:57 45.19314 8.77062 5811 ft 224 kts 31°
2026-05-05 20:57 45.20708 8.78065 5468 ft 226 kts 25°
2026-05-05 20:57 45.22142 8.78975 5182 ft 226 kts 24°
2026-05-05 20:58 45.23576 8.79869 4918 ft 225 kts 24°
2026-05-05 20:58 45.25006 8.80755 4659 ft 223 kts 24°
2026-05-05 20:58 45.26421 8.81623 4382 ft 221 kts 22°
2026-05-05 20:58 45.27909 8.82018 4120 ft 218 kts 355°
2026-05-05 20:59 45.29412 8.81699 4004 ft 218 kts 350°
2026-05-05 20:59 45.30909 8.81358 4003 ft 218 kts 351°
2026-05-05 20:59 45.32409 8.81019 4008 ft 219 kts 351°
2026-05-05 20:59 45.33913 8.80680 4005 ft 219 kts 351°
2026-05-05 21:00 45.35420 8.80352 4002 ft 219 kts 354°
2026-05-05 21:00 45.36939 8.80332 4013 ft 219 kts 357°
2026-05-05 21:00 45.38452 8.80086 4010 ft 219 kts 350°
2026-05-05 21:00 45.39948 8.79697 4008 ft 219 kts 348°
2026-05-05 21:01 45.41427 8.79290 4006 ft 212 kts 348°
2026-05-05 21:01 45.42860 8.78896 4005 ft 209 kts 348°
2026-05-05 21:01 45.44277 8.78508 4002 ft 202 kts 349°
2026-05-05 21:01 45.45627 8.78137 3879 ft 195 kts 349°
2026-05-05 21:02 45.46935 8.77779 3695 ft 189 kts 349°
2026-05-05 21:02 45.48216 8.77427 3429 ft 187 kts 349°
2026-05-05 21:02 45.49484 8.77079 3177 ft 185 kts 349°
2026-05-05 21:02 45.50740 8.76734 2928 ft 184 kts 349°
2026-05-05 21:03 45.51992 8.76389 2683 ft 183 kts 350°
2026-05-05 21:03 45.53224 8.76051 2424 ft 178 kts 350°
2026-05-05 21:03 45.54443 8.75715 2196 ft 177 kts 350°
2026-05-05 21:03 45.55650 8.75383 1958 ft 175 kts 350°
2026-05-05 21:04 45.56844 8.75054 1720 ft 174 kts 350°
2026-05-05 21:04 45.58018 8.74731 1471 ft 171 kts 349°
2026-05-05 21:04 45.59149 8.74419 1232 ft 159 kts 349°
2026-05-05 21:04 45.60198 8.74130 1021 ft 149 kts 348°
2026-05-05 21:05 45.61200 8.73851 834 ft 146 kts 349°
2026-05-05 21:05 45.62168 8.73585 748 ft 133 kts 348°
2026-05-05 21:05 45.62793 8.73413 744 ft 50 kts 348°
2026-05-05 21:05 45.63073 8.73306 741 ft 36 kts 336°
2026-05-05 21:06 45.63211 8.73155 750 ft 15 kts 315°
2026-05-05 21:06 45.63275 8.73038 749 ft 15 kts 301°
2026-05-05 21:06 45.63338 8.72906 751 ft 17 kts 304°
2026-05-05 21:06 45.63391 8.72757 750 ft 15 kts 274°
2026-05-05 21:07 45.63401 8.72601 751 ft 17 kts 265°
2026-05-05 21:07 45.63379 8.72431 751 ft 14 kts 256°
2026-05-05 21:07 45.63358 8.72274 746 ft 19 kts 259°
2026-05-05 21:07 45.63332 8.72086 748 ft 18 kts 257°
2026-05-05 21:08 45.63300 8.71977 748 ft 8 kts 215°
2026-05-05 21:08 45.63262 8.71972 750 ft 1 kts 169°
2026-05-05 21:08 45.63255 8.71974 752 ft 0 kts 168°
2026-05-05 21:08 45.63254 8.71974 752 ft 2 kts 168°
2026-05-05 21:09 45.63209 8.71988 749 ft 7 kts 168°
2026-05-05 21:09 45.63146 8.72005 749 ft 16 kts 169°
2026-05-05 21:09 45.63043 8.72033 747 ft 13 kts 168°
2026-05-05 21:09 45.62959 8.72058 752 ft 12 kts 169°
2026-05-05 21:10 45.62868 8.72082 752 ft 16 kts 170°
2026-05-05 21:10 45.62761 8.72111 750 ft 15 kts 168°
2026-05-05 21:10 45.62664 8.72137 750 ft 13 kts 169°
2026-05-05 21:10 45.62575 8.72163 750 ft 13 kts 169°
2026-05-05 21:11 45.62525 8.72177 751 ft 0 kts 168°
2026-05-05 21:11 45.62457 8.72197 750 ft 6 kts 168°
2026-05-05 21:11 45.62456 8.72197 750 ft 0 kts 168°
2026-05-05 21:12 45.62380 8.72176 750 ft 13 kts 224°
2026-05-05 21:12 45.62351 8.72026 750 ft 21 kts 260°
2026-05-05 21:12 45.62327 8.71840 753 ft 17 kts 260°
2026-05-05 21:13 45.62307 8.71694 751 ft 15 kts 259°
2026-05-05 21:13 45.62289 8.71582 750 ft 6 kts 240°
2026-05-05 21:13 45.62256 8.71568 752 ft 5 kts 179°
2026-05-05 21:13 45.62202 8.71581 750 ft 11 kts 167°
2026-05-05 21:14 45.62188 8.71585 751 ft 0 kts 168°